SWA719 KLAX-KLAS

Flight info

Callsign SWA719
Flight time N/A
Altitude 29000
Route OSHNN1 MISEN RNDRZ4
Aircraft B738/M-SDE2E3FGHIRWXY/LB1

Departure

Time 2026-04-25 02:46
Airport Los Angeles International Airport (KLAX)

Arrival

Time N/A
Airport Harry Reid International Airport (KLAS)
Time Latitude Longitude Altitude Speed Heading
2026-04-25 02:23 33.94688 -118.40190 117 ft 0 kts 84°
2026-04-25 02:37 33.94687 -118.40199 116 ft 2 kts 84°
2026-04-25 02:37 33.94685 -118.40218 116 ft 2 kts 84°
2026-04-25 02:37 33.94684 -118.40233 117 ft 0 kts 84°
2026-04-25 02:38 33.94681 -118.40246 117 ft 2 kts 51°
2026-04-25 02:38 33.94669 -118.40255 117 ft 1 kts
2026-04-25 02:38 33.94664 -118.40255 117 ft 0 kts 350°
2026-04-25 02:38 33.94667 -118.40256 117 ft 0 kts 352°
2026-04-25 02:40 33.94671 -118.40256 116 ft 1 kts 352°
2026-04-25 02:41 33.94725 -118.40263 117 ft 14 kts 354°
2026-04-25 02:41 33.94822 -118.40284 116 ft 15 kts 339°
2026-04-25 02:41 33.94906 -118.40208 116 ft 24 kts 83°
2026-04-25 02:41 33.94922 -118.40043 114 ft 16 kts 83°
2026-04-25 02:42 33.94939 -118.39946 113 ft 8 kts 55°
2026-04-25 02:42 33.94951 -118.39932 113 ft 0 kts 38°
2026-04-25 02:44 33.94955 -118.39927 113 ft 4 kts 37°
2026-04-25 02:44 33.95020 -118.39927 112 ft 15 kts 330°
2026-04-25 02:44 33.95036 -118.40015 113 ft 0 kts 263°
2026-04-25 02:45 33.95036 -118.40022 113 ft 3 kts 263°
2026-04-25 02:46 33.95017 -118.40202 117 ft 52 kts 263°
2026-04-25 02:46 33.94944 -118.40910 123 ft 115 kts 263°
2026-04-25 02:46 33.94824 -118.42093 140 ft 165 kts 263°
2026-04-25 02:46 33.94689 -118.43449 790 ft 165 kts 262°
2026-04-25 02:47 33.94535 -118.44874 1277 ft 181 kts 261°
2026-04-25 02:47 33.94380 -118.46437 1810 ft 197 kts 263°
2026-04-25 02:47 33.94297 -118.48132 2392 ft 211 kts 266°
2026-04-25 02:47 33.94255 -118.49940 2979 ft 225 kts 267°
2026-04-25 02:48 33.93996 -118.51833 3519 ft 240 kts 244°
2026-04-25 02:48 33.92874 -118.53297 4285 ft 248 kts 211°
2026-04-25 02:48 33.91177 -118.53876 4852 ft 267 kts 184°
2026-04-25 02:48 33.89293 -118.53770 5635 ft 275 kts 177°
2026-04-25 02:49 33.87365 -118.53561 6484 ft 280 kts 177°
2026-04-25 02:49 33.85435 -118.53368 7361 ft 282 kts 178°
2026-04-25 02:49 33.83472 -118.53196 8211 ft 285 kts 178°
2026-04-25 02:49 33.81496 -118.53035 9021 ft 289 kts 179°
2026-04-25 02:50 33.79488 -118.52875 9824 ft 292 kts 179°
2026-04-25 02:50 33.77465 -118.52713 10486 ft 300 kts 180°
2026-04-25 02:50 33.75332 -118.52540 10934 ft 316 kts 178°
2026-04-25 02:50 33.73091 -118.52077 11341 ft 336 kts 167°
2026-04-25 02:51 33.70925 -118.50798 11745 ft 358 kts 147°
2026-04-25 02:51 33.69133 -118.48657 12111 ft 379 kts 128°
2026-04-25 02:51 33.67837 -118.45837 12549 ft 395 kts 115°
2026-04-25 02:51 33.66824 -118.42719 13162 ft 403 kts 112°
2026-04-25 02:52 33.65888 -118.39551 13822 ft 408 kts 111°
2026-04-25 02:52 33.64993 -118.36291 14420 ft 415 kts 107°
2026-04-25 02:52 33.64469 -118.32891 15044 ft 422 kts 97°
2026-04-25 02:52 33.64278 -118.29368 15624 ft 428 kts 92°
2026-04-25 02:53 33.64251 -118.25789 16181 ft 434 kts 89°
2026-04-25 02:53 33.64635 -118.22189 16719 ft 439 kts 74°
2026-04-25 02:53 33.65771 -118.18789 17333 ft 438 kts 59°
2026-04-25 02:53 33.67421 -118.15744 17926 ft 438 kts 49°
2026-04-25 02:54 33.69492 -118.13107 18450 ft 438 kts 38°
2026-04-25 02:54 33.71854 -118.10792 18977 ft 440 kts 32°